{"data":{"norad_id":48094,"intl_designator":"2021-027C","name":"STARLINK-2412","alt_names":[],"object_type":"PAYLOAD","status":"ACTIVE","operator":null,"country":"US","launch_date":"2021-04-07","launch_site_code":"AFETR","launch_vehicle":null,"mission":null,"orbit_class":"UNKNOWN","rcs_meters":null,"size_class":null,"mass_kg":null,"dimensions":null,"purposes":["comms"],"wikipedia_slug":null,"has_3d_model":false,"image_url":null,"decayed_at":null,"tle_current":{"epoch":"2026-05-24T22:36:21.163968Z","epoch_age_seconds":90797,"freshness":"FRESH","line1":"1 48094U 21027C   26144.94191162  .00096593  00000+0  31844-2 0  9990","line2":"2 48094  53.1565 171.0837 0001638  95.9267 264.1921 15.30672354284190","mean_motion":15.30672354,"eccentricity":0.0001638,"inclination_deg":53.1565,"raan_deg":171.0837,"arg_perigee_deg":95.9267,"mean_anomaly_deg":264.1921,"bstar":0.0031844,"rev_number":28419,"period_min":94.076305503065,"perigee_km":472.68272010912,"apogee_km":474.92741633067,"semimajor_km":6851.9420682199,"source":"CELESTRAK","updated_at":"2026-05-25T13:38:16.641263Z"}}}